No particular awareness of the weather is required.    There are no Weather-warnings


Ulpukkaniemi more information Ulpukkaniemi


Yksityisiä sääasemia lähellä:

Template documentation
and downloads

And another site


Löydät sääaseman tiedot myös:

European Weather Network



Weather Underground säähistoriasivu

Päivittäin yhteenveto Maaliskuu 19, 2019 Yksiköt:  Metriset    Englantilaiset   Molemmat
« Edellinen Päivä
Seuraava Päivä »
Päivittäin Viikoittain Kuukausittain Vuosittain Mukautettu
  Tämänhetkinen: Korkea: Matala: Keskiarvo:
Lämpötila: -10.7 °C -17.8 °C -11.8 °C -10.6 °C
Kastepiste: -13.8 °C -17.8 °C -14.2 °C -13.2 °C
Kosteus: 69 % Humidity % 59 % 74 %
Tuulen nopeus: 15.6 km/h 0 km/h 0 km/h 9.3 km/h
Tuulenpuuska: 33.6 km/h 0 km/h - -
Tuuli:ENE - - SSW
Ilmanpaine: 34716.7 hPa 0 hPa 34594.8 hPa -
Sade: 109.22 mm      
Historical Graphs
 
 
Taulukkotiedot Maaliskuu 19, 2019
Aika Lämpötila Kastepiste Ilmanpaine Tuuli Tuulen nopeus Tuulenpuuska Kosteus Sademäärä (tunneittain)
-17.8 °C -17.8 °C 0 hPa Calm     Humidity % 0 mm
00:04 -10.5 °C -13.1 °C 34672.6 hPa NW 7.7 km/h 12.9 km/h 73 % 0 mm
00:09 -10.5 °C -13.1 °C 34672.6 hPa NW 5.1 km/h 10.3 km/h 73 % 0 mm
00:14 -10.6 °C -13.3 °C 34672.6 hPa NW 5.1 km/h 12.9 km/h 72 % 0 mm
00:19 -10.6 °C -13.2 °C 34672.6 hPa NW 7.7 km/h 12.9 km/h 73 % 0 mm
00:24 -10.5 °C -13.1 °C 34672.6 hPa NW 7.7 km/h 10.3 km/h 73 % 0 mm
00:29 -10.5 °C -13.1 °C 34672.6 hPa NW 5.1 km/h 10.3 km/h 73 % 0 mm
00:34 -10.6 °C -13.3 °C 34669.3 hPa NW 5.1 km/h 10.3 km/h 72 % 0 mm
00:39 -10.6 °C -13.4 °C 34669.3 hPa NW 5.1 km/h 10.3 km/h 72 % 0 mm
00:44 -10.6 °C -13.4 °C 34669.3 hPa NW 5.1 km/h 10.3 km/h 72 % 0 mm
00:49 -10.6 °C -13.4 °C 34662.5 hPa NW 5.1 km/h 7.7 km/h 72 % 0 mm
00:54 -10.7 °C -13.4 °C 34659.1 hPa NW 2.6 km/h 5.1 km/h 72 % 0 mm
00:59 -10.7 °C -13.4 °C 34662.5 hPa NW 2.6 km/h 7.7 km/h 72 % 0 mm
01:04 -10.7 °C -13.3 °C 34662.5 hPa WNW 2.6 km/h 7.7 km/h 73 % 0 mm
01:09 -10.7 °C -13.3 °C 34662.5 hPa WNW 2.6 km/h 7.7 km/h 73 % 0 mm
01:14 -10.7 °C -13.3 °C 34662.5 hPa NW 2.6 km/h 7.7 km/h 73 % 0 mm
01:19 -10.7 °C -13.3 °C 34662.5 hPa WNW 2.6 km/h 5.1 km/h 73 % 0 mm
01:24 -10.7 °C -13.3 °C 34659.1 hPa WNW 2.6 km/h 5.1 km/h 73 % 0 mm
01:29 -10.7 °C -13.3 °C 34655.7 hPa WNW 2.6 km/h 5.1 km/h 73 % 0 mm
01:34 -10.7 °C -13.3 °C 34655.7 hPa WNW 2.6 km/h 5.1 km/h 73 % 0 mm
01:40 -10.8 °C -13.3 °C 34655.7 hPa Calm   5.1 km/h 74 % 0 mm
01:44 -10.8 °C -13.3 °C 34655.7 hPa WNW 2.6 km/h 5.1 km/h 74 % 0 mm
01:49 -10.8 °C -13.3 °C 34655.7 hPa WNW 2.6 km/h 7.7 km/h 74 % 0 mm
01:54 -10.9 °C -13.4 °C 34655.7 hPa WNW 2.6 km/h 7.7 km/h 74 % 0 mm
01:59 -10.9 °C -13.3 °C 34655.7 hPa NW 2.6 km/h 7.7 km/h 75 % 0 mm
02:04 -10.9 °C -13.3 °C 34652.3 hPa NW 2.6 km/h 5.1 km/h 75 % 0 mm
02:09 -10.9 °C -13.3 °C 34655.7 hPa NW 2.6 km/h 7.7 km/h 75 % 0 mm
02:14 -10.9 °C -13.3 °C 34652.3 hPa WNW 2.6 km/h 7.7 km/h 75 % 0 mm
02:19 -11 °C -13.3 °C 34655.7 hPa WNW 5.1 km/h 7.7 km/h 76 % 0 mm
02:24 -11.1 °C -13.3 °C 34652.3 hPa WNW 5.1 km/h 10.3 km/h 76 % 0 mm
02:29 -11.1 °C -13.2 °C 34652.3 hPa WNW 5.1 km/h 10.3 km/h 77 % 0 mm
02:34 -11.1 °C -13.2 °C 34645.6 hPa WNW 5.1 km/h 10.3 km/h 77 % 0 mm
02:39 -11.2 °C -13.3 °C 34645.6 hPa WNW 5.1 km/h 10.3 km/h 77 % 0 mm
02:45 -11.2 °C -13.2 °C 34642.2 hPa WNW 5.1 km/h 10.3 km/h 78 % 0 mm
02:49 -11.2 °C -13.3 °C 34642.2 hPa WNW 5.1 km/h 7.7 km/h 77 % 0 mm
02:54 -11.2 °C -13.3 °C 34638.8 hPa WNW 5.1 km/h 7.7 km/h 77 % 0 mm
02:59 -11.2 °C -13.3 °C 34635.4 hPa WNW 5.1 km/h 7.7 km/h 77 % 0 mm
03:04 -11.1 °C -13.2 °C 34632 hPa WNW 5.1 km/h 7.7 km/h 77 % 0 mm
03:09 -11.1 °C -13.3 °C 34632 hPa WNW 2.6 km/h 5.1 km/h 77 % 0 mm
03:14 -11.1 °C -13.3 °C 34628.6 hPa WNW 2.6 km/h 5.1 km/h 77 % 0 mm
03:19 -11.2 °C -13.3 °C 34628.6 hPa WNW 2.6 km/h 7.7 km/h 77 % 0 mm
03:24 -11.2 °C -13.3 °C 34625.2 hPa WNW 2.6 km/h 7.7 km/h 77 % 0 mm
03:29 -11.2 °C -13.3 °C 34618.5 hPa WNW 2.6 km/h 10.3 km/h 77 % 0 mm
03:34 -11.2 °C -13.3 °C 34615.1 hPa WNW 2.6 km/h 10.3 km/h 77 % 0 mm
03:39 -11.2 °C -13.3 °C 34615.1 hPa WNW 2.6 km/h 5.1 km/h 77 % 0 mm
03:44 -11.2 °C -13.3 °C 34611.7 hPa WNW 2.6 km/h 7.7 km/h 77 % 0 mm
03:49 -11.2 °C -13.3 °C 34611.7 hPa WNW 2.6 km/h 7.7 km/h 77 % 0 mm
03:54 -11.2 °C -13.3 °C 34608.3 hPa NW 2.6 km/h 5.1 km/h 77 % 0 mm
03:59 -11.2 °C -13.2 °C 34608.3 hPa WNW 2.6 km/h 5.1 km/h 78 % 0 mm
04:04 -11.2 °C -13.2 °C 34608.3 hPa WNW 2.6 km/h 5.1 km/h 78 % 0 mm
04:09 -11.2 °C -13.2 °C 34604.9 hPa WNW 2.6 km/h 7.7 km/h 78 % 0 mm
04:14 -11.2 °C -13.2 °C 34601.5 hPa WNW 2.6 km/h 7.7 km/h 78 % 0 mm
04:19 -11.2 °C -13.2 °C 34601.5 hPa WNW 2.6 km/h 5.1 km/h 78 % 0 mm
04:24 -11.2 °C -13.2 °C 34604.9 hPa WNW 2.6 km/h 7.7 km/h 78 % 0 mm
04:29 -11.2 °C -13.2 °C 34604.9 hPa WNW 2.6 km/h 7.7 km/h 78 % 0 mm
04:34 -11.2 °C -13.2 °C 34604.9 hPa WNW 2.6 km/h 5.1 km/h 78 % 0 mm
04:39 -11.2 °C -13.2 °C 34601.5 hPa WNW 2.6 km/h 7.7 km/h 78 % 0 mm
04:44 -11.2 °C -13.4 °C 34604.9 hPa WNW 2.6 km/h 12.9 km/h 77 % 0 mm
04:49 -11.2 °C -13.4 °C 34601.5 hPa WNW 5.1 km/h 12.9 km/h 77 % 0 mm
04:54 -11.2 °C -13.4 °C 34601.5 hPa WNW 5.1 km/h 10.3 km/h 77 % 0 mm
04:59 -11.3 °C -13.4 °C 34598.1 hPa WNW 5.1 km/h 10.3 km/h 77 % 0 mm
05:04 -11.3 °C -13.4 °C 34601.5 hPa WNW 5.1 km/h 10.3 km/h 77 % 0 mm
05:09 -11.3 °C -13.5 °C 34598.1 hPa WNW 5.1 km/h 10.3 km/h 77 % 0 mm
05:14 -11.3 °C -13.4 °C 34601.5 hPa WNW 5.1 km/h 10.3 km/h 78 % 0 mm
05:19 -11.4 °C -13.4 °C 34601.5 hPa WNW 7.7 km/h 10.3 km/h 78 % 0 mm
05:24 -11.3 °C -13.4 °C 34601.5 hPa WNW 7.7 km/h 12.9 km/h 78 % 0 mm
05:29 -11.3 °C -13.4 °C 34598.1 hPa WNW 5.1 km/h 12.9 km/h 78 % 0 mm
05:34 -11.3 °C -13.4 °C 34598.1 hPa WNW 5.1 km/h 7.7 km/h 78 % 0 mm
05:39 -11.3 °C -13.3 °C 34601.5 hPa WNW 2.6 km/h 7.7 km/h 78 % 0 mm
05:44 -11.3 °C -13.4 °C 34601.5 hPa NW 2.6 km/h 7.7 km/h 78 % 0 mm
05:49 -11.3 °C -13.4 °C 34601.5 hPa NW 2.6 km/h 5.1 km/h 78 % 0 mm
05:54 -11.4 °C -13.4 °C 34601.5 hPa NW 2.6 km/h 10.3 km/h 79 % 0 mm
05:59 -11.4 °C -13.4 °C 34598.1 hPa NW 5.1 km/h 10.3 km/h 79 % 0 mm
06:04 -11.4 °C -13.3 °C 34601.5 hPa NW 5.1 km/h 7.7 km/h 80 % 0 mm
06:09 -11.5 °C -13.3 °C 34601.5 hPa NW 5.1 km/h 10.3 km/h 80 % 0 mm
06:14 -11.4 °C -13.2 °C 34601.5 hPa WNW 5.1 km/h 10.3 km/h 81 % 0 mm
06:19 -11.4 °C -13.2 °C 34601.5 hPa WNW 5.1 km/h 10.3 km/h 81 % 0 mm
06:24 -11.4 °C -13.2 °C 34604.9 hPa WNW 5.1 km/h 10.3 km/h 81 % 0 mm
06:29 -11.4 °C -13.2 °C 34604.9 hPa WNW 5.1 km/h 7.7 km/h 81 % 0 mm
06:34 -11.4 °C -13.2 °C 34601.5 hPa NW 2.6 km/h 5.1 km/h 81 % 0 mm
06:39 -11.4 °C -13.2 °C 34604.9 hPa Calm   5.1 km/h 81 % 0 mm
06:44 -11.3 °C -13.1 °C 34604.9 hPa Calm   5.1 km/h 81 % 0 mm
06:49 -11.3 °C -13.1 °C 34604.9 hPa NW 2.6 km/h 7.7 km/h 81 % 0 mm
06:54 -11.3 °C -13.1 °C 34604.9 hPa NW 2.6 km/h 7.7 km/h 81 % 0 mm
06:59 -11.3 °C -13.1 °C 34604.9 hPa WNW 2.6 km/h 5.1 km/h 81 % 0 mm
07:04 -11.3 °C -13.1 °C 34604.9 hPa WNW 2.6 km/h 5.1 km/h 81 % 0 mm
07:09 -11.3 °C -13 °C 34604.9 hPa NW 2.6 km/h 2.6 km/h 81 % 0 mm
07:15 -11.3 °C -13 °C 34608.3 hPa Calm   5.1 km/h 81 % 0 mm
07:19 -11.3 °C -13 °C 34608.3 hPa WNW 2.6 km/h 5.1 km/h 81 % 0 mm
07:24 -11.2 °C -12.9 °C 34608.3 hPa WNW 2.6 km/h 5.1 km/h 81 % 0 mm
07:29 -11.2 °C -12.9 °C 34611.7 hPa WNW 2.6 km/h 5.1 km/h 81 % 0 mm
07:34 -11.2 °C -12.9 °C 34611.7 hPa WNW 2.6 km/h 5.1 km/h 81 % 0 mm
07:39 -11.2 °C -12.9 °C 34608.3 hPa WNW 2.6 km/h 7.7 km/h 81 % 0 mm
07:44 -11.1 °C -12.9 °C 34608.3 hPa WNW 2.6 km/h 7.7 km/h 81 % 0 mm
07:49 -11.1 °C -12.8 °C 34608.3 hPa WNW 2.6 km/h 2.6 km/h 81 % 0 mm
07:55 -11.1 °C -12.8 °C 34608.3 hPa Calm   5.1 km/h 81 % 0 mm
07:59 -11.1 °C -12.8 °C 34611.7 hPa Calm   5.1 km/h 81 % 0 mm
08:04 -11.1 °C -12.8 °C 34608.3 hPa WNW 2.6 km/h 5.1 km/h 81 % 0 mm
08:09 -11.1 °C -12.8 °C 34608.3 hPa WNW 2.6 km/h 5.1 km/h 81 % 0 mm
08:14 -11 °C -12.7 °C 34608.3 hPa WNW 2.6 km/h 7.7 km/h 81 % 0 mm
08:19 -11 °C -12.7 °C 34608.3 hPa WNW 2.6 km/h 7.7 km/h 81 % 0 mm
08:24 -10.9 °C -12.7 °C 34611.7 hPa WNW 5.1 km/h 7.7 km/h 81 % 0 mm
08:29 -11.1 °C -12.7 °C 34611.7 hPa NW 5.1 km/h 7.7 km/h 82 % 7.62 mm
08:34 -11.2 °C -12.7 °C 34615.1 hPa NW 5.1 km/h 10.3 km/h 83 % 12.7 mm
08:40 -11.3 °C -12.9 °C 34615.1 hPa NW 5.1 km/h 15.6 km/h 83 % 12.7 mm
08:44 -11.4 °C -12.9 °C 34615.1 hPa NW 7.7 km/h 15.6 km/h 84 % 12.7 mm
08:49 -11.5 °C -12.8 °C 34618.5 hPa NW 7.7 km/h 12.9 km/h 85 % 12.7 mm
08:54 -11.6 °C -12.9 °C 34621.9 hPa WNW 7.7 km/h 15.6 km/h 85 % 20.32 mm
08:59 -11.6 °C -12.8 °C 34625.2 hPa WNW 7.7 km/h 18.2 km/h 87 % 25.4 mm
09:04 -11.8 °C -12.9 °C 34625.2 hPa WNW 7.7 km/h 18.2 km/h 87 % 38.1 mm
09:09 -11.7 °C -12.8 °C 34628.6 hPa WNW 10.3 km/h 18.2 km/h 88 % 58.42 mm
09:14 -11.7 °C -12.8 °C 34625.2 hPa WSW 7.7 km/h 10.3 km/h 88 % 63.5 mm
09:20 -11.7 °C -12.7 °C 34621.9 hPa SSW 2.6 km/h 7.7 km/h 88 % 83.82 mm
09:24 -11.6 °C -12.6 °C 34618.5 hPa SSW 2.6 km/h 7.7 km/h 89 % 83.82 mm
09:29 -11.6 °C -12.6 °C 34618.5 hPa Calm   5.1 km/h 89 % 83.82 mm
09:34 -11.6 °C -12.6 °C 34618.5 hPa Calm   5.1 km/h 89 % 83.82 mm
09:39 -11.6 °C -12.4 °C 34618.5 hPa Calm   5.1 km/h 90 % 91.44 mm
09:44 -11.6 °C -12.4 °C 34611.7 hPa Calm   2.6 km/h 90 % 91.44 mm
09:49 -11.5 °C -12.4 °C 34615.1 hPa Calm   2.6 km/h 90 % 91.44 mm
09:54 -11.5 °C -12.4 °C 34611.7 hPa Calm   2.6 km/h 90 % 83.82 mm
09:59 -11.5 °C -12.4 °C 34618.5 hPa Calm   7.7 km/h 90 % 83.82 mm
10:04 -11.4 °C -12.3 °C 34618.5 hPa WNW 2.6 km/h 7.7 km/h 90 % 71.12 mm
10:09 -11.4 °C -12.3 °C 34618.5 hPa WNW 2.6 km/h 12.9 km/h 90 % 50.8 mm
10:14 -11.4 °C -12.3 °C 34618.5 hPa WNW 5.1 km/h 12.9 km/h 90 % 38.1 mm
10:19 -11.4 °C -12.3 °C 34618.5 hPa WNW 5.1 km/h 12.9 km/h 90 % 25.4 mm
10:24 -11.3 °C -12.2 °C 34618.5 hPa WNW 5.1 km/h 15.6 km/h 90 % 12.7 mm
10:29 -11.4 °C -12.4 °C 34618.5 hPa WNW 5.1 km/h 15.6 km/h 89 % 12.7 mm
10:34 -11.4 °C -12.4 °C 34618.5 hPa WNW 7.7 km/h 18.2 km/h 89 % 12.7 mm
10:39 -11.3 °C -12.3 °C 34615.1 hPa WNW 10.3 km/h 18.2 km/h 89 % 7.62 mm
10:44 -11.2 °C -12.1 °C 34611.7 hPa WNW 10.3 km/h 18.2 km/h 89 % 0 mm
10:49 -11.1 °C -12.3 °C 34615.1 hPa West 7.7 km/h 15.6 km/h 87 % 0 mm
10:54 -11.1 °C -12.2 °C 34611.7 hPa WNW 7.7 km/h 15.6 km/h 87 % 0 mm
10:59 -10.9 °C -12.1 °C 34611.7 hPa WNW 7.7 km/h 15.6 km/h 87 % 0 mm
11:04 -10.8 °C -12.1 °C 34611.7 hPa WNW 5.1 km/h 10.3 km/h 86 % 0 mm
11:09 -10.7 °C -12.2 °C 34615.1 hPa WNW 2.6 km/h 15.6 km/h 84 % 0 mm
11:14 -10.7 °C -12.2 °C 34611.7 hPa WNW 5.1 km/h 15.6 km/h 83 % 0 mm
11:19 -10.4 °C -11.9 °C 34611.7 hPa West 5.1 km/h 15.6 km/h 84 % 0 mm
11:24 -10.4 °C -11.9 °C 34611.7 hPa West 5.1 km/h 12.9 km/h 83 % 0 mm
11:29 -10.4 °C -12.1 °C 34611.7 hPa West 5.1 km/h 12.9 km/h 82 % 0 mm
11:34 -10.2 °C -12.1 °C 34611.7 hPa West 5.1 km/h 12.9 km/h 80 % 0 mm
11:39 -10.2 °C -12.3 °C 34608.3 hPa WNW 5.1 km/h 12.9 km/h 78 % 0 mm
11:44 -10.2 °C -12.6 °C 34608.3 hPa WNW 5.1 km/h 12.9 km/h 75 % 0 mm
11:49 -10.1 °C -12.4 °C 34608.3 hPa WNW 5.1 km/h 12.9 km/h 76 % 0 mm
11:54 -9.8 °C -12.6 °C 34608.3 hPa WNW 5.1 km/h 18.2 km/h 72 % 0 mm
11:59 -9.8 °C -12.4 °C 34608.3 hPa West 5.1 km/h 18.2 km/h 73 % 0 mm
12:04 -9.5 °C -12.3 °C 34608.3 hPa SW 5.1 km/h 10.3 km/h 72 % 0 mm
12:09 -9.3 °C -12.2 °C 34608.3 hPa SW 5.1 km/h 7.7 km/h 71 % 0 mm
12:14 -9.1 °C -12.7 °C 34608.3 hPa North 2.6 km/h 15.6 km/h 65 % 0 mm
12:20 -9.4 °C -13.2 °C 34608.3 hPa ENE 2.6 km/h 15.6 km/h 64 % 0 mm
12:24 -9.3 °C -12.8 °C 34608.3 hPa East 5.1 km/h 12.9 km/h 66 % 0 mm
12:29 -9.3 °C -12.6 °C 34608.3 hPa ESE 5.1 km/h 18.2 km/h 68 % 0 mm
12:35 -9.2 °C -12.7 °C 34608.3 hPa East 7.7 km/h 20.8 km/h 66 % 0 mm
12:39 -9.4 °C -13 °C 34608.3 hPa East 7.7 km/h 28.5 km/h 65 % 0 mm
12:44 -9.6 °C -13.1 °C 34611.7 hPa East 12.9 km/h 28.5 km/h 66 % 0 mm
12:49 -9.8 °C -13 °C 34608.3 hPa ENE 15.6 km/h 28.5 km/h 68 % 0 mm
12:54 -9.7 °C -12.8 °C 34608.3 hPa East 15.6 km/h 28.5 km/h 69 % 0 mm
12:59 -9.8 °C -12.8 °C 34608.3 hPa East 12.9 km/h 23.3 km/h 70 % 0 mm
13:04 -9.7 °C -13 °C 34608.3 hPa East 12.9 km/h 33.6 km/h 67 % 0 mm
13:09 -9.8 °C -12.9 °C 34611.7 hPa East 12.9 km/h 33.6 km/h 69 % 0 mm
13:14 -9.8 °C -12.8 °C 34611.7 hPa East 15.6 km/h 31.1 km/h 70 % 0 mm
13:19 -9.9 °C -12.8 °C 34611.7 hPa East 15.6 km/h 31.1 km/h 71 % 0 mm
13:24 -9.8 °C -12.5 °C 34608.3 hPa ESE 15.6 km/h 25.9 km/h 73 % 0 mm
13:29 -9.8 °C -12.6 °C 34608.3 hPa ESE 15.6 km/h 28.5 km/h 72 % 0 mm
13:34 -9.7 °C -12.7 °C 34608.3 hPa ESE 18.2 km/h 28.5 km/h 70 % 0 mm
13:39 -9.6 °C -12.5 °C 34601.5 hPa ESE 18.2 km/h 28.5 km/h 71 % 0 mm
13:44 -9.7 °C -12.8 °C 34604.9 hPa ESE 15.6 km/h 25.9 km/h 69 % 0 mm
13:49 -9.8 °C -12.7 °C 34601.5 hPa ESE 15.6 km/h 33.6 km/h 71 % 0 mm
13:54 -10.1 °C -12.6 °C 34598.1 hPa ESE 18.2 km/h 33.6 km/h 74 % 0 mm
13:59 -10.1 °C -12.4 °C 34598.1 hPa ESE 23.3 km/h 44.1 km/h 76 % 0 mm
14:04 -10.2 °C -12.4 °C 34601.5 hPa ESE 25.9 km/h 46.7 km/h 76 % 0 mm
14:09 -10.2 °C -12.7 °C 34598.1 hPa ESE 25.9 km/h 46.7 km/h 75 % 0 mm
14:14 -10.2 °C -12.7 °C 34598.1 hPa ESE 28.5 km/h 44.1 km/h 75 % 0 mm
14:20 -10.2 °C -12.6 °C 34594.8 hPa ESE 28.5 km/h 41.4 km/h 75 % 0 mm
14:24 -10.1 °C -12.7 °C 34598.1 hPa ESE 25.9 km/h 38.8 km/h 73 % 0 mm
14:30 -10.1 °C -12.9 °C 34594.8 hPa ESE 23.3 km/h 36.2 km/h 71 % 0 mm
14:34 -10.1 °C -12.8 °C 34594.8 hPa ESE 20.8 km/h 33.6 km/h 72 % 0 mm
14:39 -10 °C -13 °C 34594.8 hPa ESE 20.8 km/h 31.1 km/h 70 % 0 mm
14:44 -9.9 °C -12.9 °C 34598.1 hPa SE 18.2 km/h 31.1 km/h 70 % 0 mm
14:49 -10 °C -13.1 °C 34594.8 hPa ESE 18.2 km/h 33.6 km/h 69 % 0 mm
14:54 -9.8 °C -12.9 °C 34598.1 hPa ESE 18.2 km/h 33.6 km/h 69 % 0 mm
15:00 -9.8 °C -12.9 °C 34598.1 hPa ESE 18.2 km/h 31.1 km/h 69 % 0 mm
15:04 -9.8 °C -13 °C 34594.8 hPa ESE 15.6 km/h 31.1 km/h 68 % 0 mm
15:09 -9.8 °C -13 °C 34594.8 hPa ESE 15.6 km/h 31.1 km/h 68 % 0 mm
15:14 -9.7 °C -13.2 °C 34598.1 hPa ESE 15.6 km/h 31.1 km/h 66 % 0 mm
15:19 -9.8 °C -13.1 °C 34598.1 hPa ESE 18.2 km/h 31.1 km/h 68 % 0 mm
15:24 -9.7 °C -13.2 °C 34598.1 hPa ESE 18.2 km/h 31.1 km/h 66 % 0 mm
15:30 -9.8 °C -13.3 °C 34601.5 hPa East 20.8 km/h 31.1 km/h 66 % 0 mm
15:34 -9.8 °C -13.2 °C 34601.5 hPa East 18.2 km/h 25.9 km/h 67 % 0 mm
15:40 -9.9 °C -13.2 °C 34598.1 hPa East 15.6 km/h 25.9 km/h 67 % 0 mm
15:44 -9.9 °C -13.6 °C 34601.5 hPa East 12.9 km/h 38.8 km/h 65 % 0 mm
15:49 -9.9 °C -13.6 °C 34601.5 hPa East 15.6 km/h 38.8 km/h 65 % 0 mm
15:54 -9.9 °C -13.5 °C 34601.5 hPa East 15.6 km/h 28.5 km/h 65 % 0 mm
15:59 -9.9 °C -13.6 °C 34601.5 hPa East 15.6 km/h 28.5 km/h 65 % 0 mm
16:04 -9.9 °C -13.5 °C 34604.9 hPa East 18.2 km/h 28.5 km/h 65 % 0 mm
16:10 -9.9 °C -13.6 °C 34601.5 hPa East 18.2 km/h 33.6 km/h 65 % 0 mm
16:14 -9.9 °C -13.3 °C 34598.1 hPa ENE 18.2 km/h 33.6 km/h 67 % 0 mm
16:19 -9.8 °C -13.3 °C 34604.9 hPa ENE 20.8 km/h 33.6 km/h 66 % 0 mm
16:25 -9.6 °C -13.1 °C 34601.5 hPa ENE 18.2 km/h 33.6 km/h 66 % 0 mm
16:29 -9.6 °C -13.4 °C 34608.3 hPa ENE 15.6 km/h 33.6 km/h 63 % 0 mm
16:34 -9.7 °C -13.8 °C 34604.9 hPa ENE 15.6 km/h 41.4 km/h 61 % 0 mm
16:39 -9.7 °C -13.6 °C 34604.9 hPa ENE 18.2 km/h 44.1 km/h 63 % 0 mm
16:44 -9.6 °C -13.5 °C 34604.9 hPa ENE 23.3 km/h 44.1 km/h 63 % 0 mm
16:49 -9.7 °C -13.4 °C 34604.9 hPa ENE 20.8 km/h 44.1 km/h 64 % 0 mm
16:55 -9.5 °C -13.4 °C 34604.9 hPa ENE 20.8 km/h 44.1 km/h 63 % 0 mm
16:59 -9.6 °C -13.5 °C 34608.3 hPa ENE 18.2 km/h 41.4 km/h 63 % 0 mm
17:04 -9.7 °C -13.4 °C 34608.3 hPa ENE 18.2 km/h 41.4 km/h 64 % 0 mm
17:09 -9.7 °C -13.4 °C 34611.7 hPa ENE 20.8 km/h 33.6 km/h 64 % 0 mm
17:14 -9.7 °C -13.6 °C 34611.7 hPa ENE 20.8 km/h 33.6 km/h 63 % 0 mm
17:19 -9.6 °C -13.7 °C 34608.3 hPa ENE 18.2 km/h 31.1 km/h 61 % 0 mm
17:24 -9.7 °C -13.8 °C 34611.7 hPa ENE 18.2 km/h 38.8 km/h 61 % 0 mm
17:29 -9.8 °C -14.2 °C 34615.1 hPa ENE 18.2 km/h 41.4 km/h 59 % 0 mm
17:34 -9.8 °C -14.1 °C 34611.7 hPa ENE 20.8 km/h 41.4 km/h 60 % 0 mm
17:39 -9.7 °C -13.9 °C 34611.7 hPa ENE 20.8 km/h 38.8 km/h 60 % 0 mm
17:44 -9.8 °C -13.9 °C 34615.1 hPa ENE 20.8 km/h 41.4 km/h 61 % 0 mm
17:50 -9.8 °C -14.1 °C 34618.5 hPa ENE 20.8 km/h 41.4 km/h 60 % 0 mm
17:54 -9.8 °C -13.8 °C 34618.5 hPa ENE 20.8 km/h 33.6 km/h 62 % 0 mm
18:00 -9.8 °C -14.1 °C 34621.9 hPa ENE 18.2 km/h 33.6 km/h 60 % 0 mm
18:04 -9.8 °C -13.9 °C 34621.9 hPa ENE 18.2 km/h 33.6 km/h 61 % 0 mm
18:09 -9.8 °C -13.8 °C 34621.9 hPa ENE 18.2 km/h 36.2 km/h 62 % 0 mm
18:14 -9.8 °C -13.7 °C 34628.6 hPa ENE 18.2 km/h 36.2 km/h 63 % 0 mm
18:19 -9.9 °C -13.7 °C 34628.6 hPa ENE 18.2 km/h 33.6 km/h 63 % 0 mm
18:24 -9.9 °C -13.6 °C 34632 hPa ENE 18.2 km/h 33.6 km/h 64 % 0 mm
18:29 -9.9 °C -13.6 °C 34632 hPa ENE 18.2 km/h 28.5 km/h 64 % 0 mm
18:34 -9.9 °C -13.8 °C 34635.4 hPa ENE 15.6 km/h 31.1 km/h 63 % 0 mm
18:40 -9.9 °C -13.7 °C 34638.8 hPa NE 15.6 km/h 31.1 km/h 63 % 0 mm
18:45 -9.9 °C -13.6 °C 34642.2 hPa ENE 15.6 km/h 23.3 km/h 64 % 0 mm
18:49 -9.9 °C -13.8 °C 34645.6 hPa ENE 12.9 km/h 28.5 km/h 63 % 0 mm
18:54 -10 °C -13.7 °C 34648.9 hPa NE 12.9 km/h 28.5 km/h 64 % 0 mm
18:59 -10.1 °C -13.8 °C 34652.3 hPa NE 12.9 km/h 28.5 km/h 64 % 0 mm
19:04 -10.1 °C -13.8 °C 34655.7 hPa ENE 15.6 km/h 25.9 km/h 64 % 0 mm
19:09 -10.1 °C -13.8 °C 34655.7 hPa NE 12.9 km/h 25.9 km/h 64 % 0 mm
19:15 -10.1 °C -13.8 °C 34655.7 hPa NE 10.3 km/h 28.5 km/h 64 % 0 mm
19:19 -10.2 °C -14 °C 34659.1 hPa NE 10.3 km/h 33.6 km/h 63 % 0 mm
19:25 -10.2 °C -13.8 °C 34662.5 hPa NE 12.9 km/h 33.6 km/h 65 % 0 mm
19:29 -10.2 °C -13.7 °C 34659.1 hPa ENE 12.9 km/h 25.9 km/h 66 % 0 mm
19:34 -10.2 °C -13.7 °C 34662.5 hPa ENE 12.9 km/h 25.9 km/h 66 % 0 mm
19:39 -10.3 °C -13.6 °C 34665.9 hPa ENE 12.9 km/h 31.1 km/h 67 % 0 mm
19:44 -10.3 °C -13.7 °C 34665.9 hPa ENE 12.9 km/h 31.1 km/h 67 % 0 mm
19:49 -10.3 °C -13.8 °C 34669.3 hPa ENE 12.9 km/h 28.5 km/h 66 % 0 mm
19:54 -10.3 °C -13.8 °C 34672.6 hPa ENE 12.9 km/h 28.5 km/h 66 % 0 mm
19:59 -10.4 °C -13.7 °C 34676 hPa NE 12.9 km/h 31.1 km/h 67 % 0 mm
20:05 -10.4 °C -13.7 °C 34679.4 hPa NE 12.9 km/h 36.2 km/h 67 % 0 mm
20:09 -10.4 °C -13.7 °C 34679.4 hPa ENE 15.6 km/h 36.2 km/h 68 % 0 mm
20:14 -10.5 °C -13.7 °C 34682.8 hPa NE 18.2 km/h 31.1 km/h 68 % 0 mm
20:19 -10.5 °C -13.6 °C 34682.8 hPa NE 15.6 km/h 31.1 km/h 69 % 0 mm
20:24 -10.5 °C -13.6 °C 34686.2 hPa NE 12.9 km/h 25.9 km/h 69 % 0 mm
20:30 -10.6 °C -13.7 °C 34686.2 hPa ENE 12.9 km/h 28.5 km/h 69 % 0 mm
20:34 -10.6 °C -13.7 °C 34689.6 hPa NE 12.9 km/h 31.1 km/h 69 % 0 mm
20:39 -10.6 °C -13.7 °C 34689.6 hPa NE 12.9 km/h 31.1 km/h 69 % 0 mm
20:44 -10.6 °C -13.8 °C 34693 hPa ENE 12.9 km/h 31.1 km/h 68 % 0 mm
20:49 -10.7 °C -14 °C 34693 hPa NE 12.9 km/h 38.8 km/h 67 % 0 mm
20:54 -10.7 °C -13.8 °C 34696.3 hPa NE 18.2 km/h 38.8 km/h 68 % 0 mm
20:59 -10.7 °C -13.7 °C 34699.7 hPa ENE 18.2 km/h 33.6 km/h 69 % 0 mm
21:04 -10.7 °C -13.7 °C 34703.1 hPa ENE 18.2 km/h 33.6 km/h 69 % 0 mm
21:10 -10.7 °C -13.8 °C 34699.7 hPa ENE 15.6 km/h 28.5 km/h 68 % 0 mm
21:14 -10.7 °C -13.7 °C 34706.5 hPa NE 15.6 km/h 41.4 km/h 69 % 0 mm
21:19 -10.7 °C -13.8 °C 34706.5 hPa NE 15.6 km/h 41.4 km/h 69 % 0 mm
21:25 -10.7 °C -13.7 °C 34709.9 hPa ENE 15.6 km/h 36.2 km/h 70 % 0 mm
21:29 -10.7 °C -13.7 °C 34709.9 hPa ENE 15.6 km/h 36.2 km/h 70 % 0 mm
21:34 -10.7 °C -13.7 °C 34713.3 hPa ENE 12.9 km/h 33.6 km/h 70 % 0 mm
21:39 -10.7 °C -13.7 °C 34713.3 hPa ENE 12.9 km/h 33.6 km/h 70 % 0 mm
21:44 -10.7 °C -13.8 °C 34716.7 hPa ENE 15.6 km/h 33.6 km/h 69 % 0 mm
Ulpukkaniemen harrastesääasema
Terveisin Weather Underground - 2.75 mb

Alkuperäinen skripti  Jim McMurry - jmcmurry@mwt.net Sovitettu myös templatelle  Wim van der Kuil - Leuven-Template.eu

Laitteet joita käytämme:

Sääasema
WS3083

Sääasemaohjelma
Cumulus

Sääaseman tietokone
RaspberryPI

Palveluntarjoaja
Suncomet

WS3083

Cumulus

RaspberryPI

Suncomet